User: anonymous   Login
Location: Unspecified
(0.0000°N, 0.0000°E)
Time: 14:36:40
(UTC+01:00)
Language:

AO-7 - Orbit

View from above orbital plane
View from above orbital plane
View from above satellite
View from above satellite

Ground track
Ground track

The orbit data is extracted from the following two-line orbital elements,

1 07530U 74089B   14303.95101912 -.00000024  00000-0  12295-3 0  1083
2 07530 101.4900 281.3938 0012212 031.5136 338.3469 12.53608619828536
Epoch (UTC): 30 October 2014 22:49:28
Eccentricity: 0.0012212
inclination: 101.4900°
perigee height: 1440 km
apogee height: 1459 km
right ascension of ascending node: 281.3938°
argument of perigee: 31.5136°
revolutions per day: 12.53608619
mean anomaly at epoch: 338.3469°
orbit number at epoch: 82853

The dashed part of the orbit path shows where the satellite is in the earth's shadow,  

DLR